Vertical_Velocity
1 -4 -1 0 -1 -6 2 -4 -1 -1 0 2 -2 3 1 -1 -2 -2 0 -0 0 -1 -1 -1 -3 -2 -2 -3 -3 -0 -2 -2 -1 -7 -1 4 -6 -5
-1 -0 -7 7 -2 -3 -6 5 -1 -4 -3 -2 3 -3 0 2 1 -0 0 0 4 2 1 -1 2 2 2 4 -5 3 -2 -0 -4 -3 0 -5 7 -4
-3 -6 1 -3 1 -6 4 3 2 -3 -10 -0 -1 0 2 -4 -2 -0 -2 -8 -9 -5 -5 -4 1 1 0 -2 4 1 0 0 -4 -3 -6 -3 -5 -1
-8 -5 2 2 -7 0 2 4 -0 -4 -3 -6 -0 -2 -0 -2 -3 -4 -8 -4 1 1 -0 -5 -3 -4 -3 -2 -4 -3 0 -2 -7 -2 1 -1 -4 -6
-14 7 -4 -7 3 3 0 -1 -0 0 0 0 -2 -1 -2 -0 -6 -3 -2 -3 2 1 1 1 1 1 -1 -3 -4 -3 -5 -4 -3 0 5 -7 -5 -6
-9 1 -2 -2 4 -3 3 -0 -2 -1 -0 -0 0 -2 0 -3 -1 -0 -7 -2 -6 -1 4 1 0 -2 -2 0 -2 -2 -1 2 -0 -4 -4 1 -3 -2
-4 3 -0 3 -6 4 1 -4 -0 -2 -2 -5 1 -1 -2 -3 -2 -2 -4 -4 -1 -2 -5 -3 -10 -6 -6 -9 -3 0 -2 -6 5 8 6 3 1 -7
-1 -1 0 -4 -1 1 -2 -1 -3 -5 -2 0 -2 -0 2 2 1 -3 -1 -8 -17 5 -12 -11 -4 -8 -5 -5 -5 2 0 -4 15 -1 -2 -7 0 -1
3 -3 -4 -2 2 -2 -1 -5 -1 5 3 0 -1 2 -3 0 -2 -2 1 2 -2 -4 1 -14 -1 -6 -2 -3 4 -0 -0 2 3 -6 -7 3 2 -2
-3 -1 -2 -1 0 -0 -3 1 3 -2 -1 2 2 3 1 1 1 3 1 -4 -5 -2 3 -11 -2 -2 -5 3 1 0 -2 -3 -3 -3 -2 0 -2 -3
-0 -3 -3 1 0 -1 -4 -7 -1 1 2 2 1 -1 0 3 5 -1 -4 -6 -8 -8 -2 1 -4 -8 -5 -4 0 -2 2 1 1 0 -1 0 -1 1
-0 0 -3 1 1 0 1 -1 -2 -2 -4 -2 2 3 4 1 -2 -1 -1 -1 -0 -6 2 -4 1 -5 -5 -2 -3 -1 -2 2 1 2 0 -2 -2 0
-2 -0 1 1 1 2 -1 -1 -0 -3 -3 -3 -3 -0 -3 -6 -6 -4 -1 3 1 -1 6 5 -5 -0 4 -12 -2 -5 -3 -2 -3 -1 2 1 -4 7
0 1 1 1 -2 -2 1 1 -0 -3 1 2 -1 -4 -6 -5 -3 0 3 3 4 1 -2 6 -2 3 3 -2 -7 -4 -3 -7 -2 1 -3 -2 2 2
-2 -1 -2 -1 -0 0 -1 -2 -0 3 -0 -4 -5 -4 -3 -0 1 2 3 2 -0 3 1 2 2 1 3 -1 -3 -6 -10 -5 -3 -7 -1 -0 -1 3
-0 2 0 -2 -4 -3 -0 2 1 -1 -4 -4 -2 -3 -2 -2 -1 4 -0 -2 -5 -1 3 2 3 4 -2 -0 0 -4 3 2 -3 -1 -2 -3 -4 1
0 1 -2 -3 -0 2 1 -1 -3 -2 -4 -4 -1 -0 -2 0 -1 2 1 -1 -2 -5 -5 -2 -0 0 2 -2 -5 4 -4 -1 2 -2 -0 -3 -4 -0
-2 -6 -2 -0 -0 -3 -6 -6 -5 -3 -1 -0 -1 1 1 -1 -3 -2 2 1 -2 -2 -4 -0 -2 -3 -5 -3 -3 -2 3 -1 0 -1 -0 -2 -6 2
-3 -1 -2 -1 -5 -5 -4 -2 -3 -2 -1 -1 0 -0 2 -3 1 -2 -2 1 -2 -0 -2 -2 -1 2 -3 -3 -1 3 -4 -0 -4 -4 2 4 -4 -4
-2 -0 -3 -6 -4 -3 -0 -1 -2 -2 -1 1 0 1 2 1 -2 -1 1 -1 -3 -2 -2 -2 3 3 3 3 -5 -11 12 -4 2 -4 -4 -1 -1 1
1 -2 -3 -2 -0 1 2 0 0 0 1 3 -0 0 1 1 -2 0 -1 2 2 2 -3 -5 0 5 4 4 -7 -10 -4 8 6 2 -2 -0 -1 -8
-4 -4 -2 -0 1 1 -0 -1 -1 0 0 -0 -1 -1 -0 1 -1 -1 1 -2 -2 -0 -3 -3 -4 -2 0 5 -3 -5 -9 -7 7 5 8 14 6 -7
-2 -1 -0 1 1 0 0 -1 1 1 0 -0 1 1 1 -3 2 1 -0 1 1 -2 0 -5 -3 2 -2 0 4 -3 -3 -3 -3 -14 -11 8 5 5
Height
1521 1524 1525 1527 1526 1529 1530 1529 1529 1528 1527 1528 1529 1527 1523 1519 1516 1513 1510 1507 1504 1501 1497 1495 1491 1487 1485 1482 1479 1476 1473 1469 1466 1463 1461 1457 1455 1452
1519 1524 1527 1526 1526 1527 1529 1527 1524 1525 1525 1525 1524 1521 1518 1515 1512 1510 1507 1504 1501 1496 1493 1489 1485 1482 1479 1476 1473 1470 1466 1463 1460 1458 1454 1452 1449 1446
1519 1523 1527 1526 1526 1527 1527 1525 1522 1521 1521 1522 1520 1516 1513 1510 1508 1505 1502 1498 1495 1491 1487 1483 1479 1475 1472 1469 1467 1464 1460 1457 1454 1451 1449 1446 1442 1440
1518 1525 1525 1526 1527 1525 1524 1522 1519 1518 1518 1517 1515 1512 1510 1506 1504 1500 1497 1494 1490 1485 1480 1476 1472 1468 1465 1462 1459 1456 1454 1450 1448 1446 1443 1440 1438 1435
1520 1525 1523 1525 1525 1523 1521 1518 1516 1516 1514 1512 1510 1508 1506 1502 1499 1496 1492 1487 1483 1479 1474 1470 1467 1462 1459 1456 1453 1450 1447 1444 1442 1440 1437 1434 1431 1428
1522 1523 1522 1524 1523 1519 1517 1515 1514 1512 1511 1508 1506 1504 1501 1498 1494 1489 1484 1481 1476 1473 1469 1466 1462 1458 1455 1451 1447 1444 1441 1439 1437 1434 1432 1429 1426 1423
1523 1521 1521 1521 1520 1517 1513 1512 1510 1508 1507 1504 1503 1499 1495 1492 1488 1484 1479 1474 1470 1467 1463 1460 1456 1452 1449 1446 1443 1439 1437 1435 1432 1429 1425 1423 1421 1418
1518 1520 1520 1518 1517 1513 1511 1510 1508 1506 1504 1501 1498 1495 1491 1488 1484 1480 1476 1471 1464 1464 1458 1453 1452 1447 1444 1441 1437 1435 1432 1430 1427 1424 1421 1419 1416 1413
1517 1518 1516 1516 1513 1511 1508 1507 1506 1504 1501 1497 1494 1491 1487 1484 1480 1476 1473 1468 1464 1460 1457 1450 1448 1442 1439 1435 1431 1428 1427 1426 1423 1419 1415 1413 1410 1407
1515 1514 1514 1514 1510 1507 1505 1505 1503 1500 1496 1493 1490 1487 1484 1481 1477 1473 1468 1464 1461 1458 1454 1445 1442 1436 1432 1429 1425 1425 1424 1420 1417 1413 1410 1407 1404 1400
1512 1510 1512 1510 1506 1504 1502 1500 1498 1495 1493 1490 1487 1484 1481 1477 1473 1468 1464 1460 1454 1451 1449 1443 1438 1430 1427 1423 1422 1420 1418 1415 1410 1407 1403 1400 1397 1395
1511 1509 1508 1506 1503 1501 1498 1495 1493 1490 1488 1486 1483 1480 1476 1472 1469 1466 1462 1458 1453 1446 1445 1441 1435 1432 1420 1417 1418 1415 1412 1409 1405 1401 1397 1394 1392 1389
1508 1506 1504 1502 1500 1497 1494 1492 1489 1486 1484 1481 1478 1474 1472 1468 1465 1461 1458 1454 1450 1447 1443 1439 1432 1430 1428 1417 1409 1408 1406 1402 1398 1395 1393 1391 1388 1386
1505 1503 1502 1499 1495 1493 1491 1488 1486 1483 1480 1476 1473 1469 1466 1462 1459 1456 1453 1450 1447 1443 1439 1435 1430 1427 1421 1414 1407 1402 1400 1397 1394 1391 1388 1385 1382 1379
1503 1500 1497 1494 1492 1490 1487 1484 1482 1479 1475 1472 1468 1465 1462 1458 1454 1451 1448 1444 1440 1438 1435 1431 1427 1422 1418 1412 1404 1399 1394 1390 1389 1386 1382 1378 1374 1371
1500 1497 1494 1491 1488 1486 1483 1481 1478 1475 1472 1468 1464 1461 1457 1453 1450 1446 1441 1437 1433 1431 1430 1426 1422 1418 1411 1407 1402 1394 1393 1389 1384 1380 1375 1370 1368 1365
1496 1493 1490 1487 1484 1481 1479 1477 1474 1471 1468 1464 1460 1456 1452 1448 1444 1441 1436 1432 1429 1425 1421 1419 1416 1411 1406 1401 1395 1391 1386 1382 1379 1373 1368 1363 1360 1358
1492 1489 1486 1482 1479 1477 1474 1471 1468 1465 1463 1459 1456 1452 1448 1443 1439 1436 1432 1428 1424 1421 1417 1413 1408 1403 1398 1395 1393 1387 1382 1378 1373 1368 1364 1358 1352 1351
1489 1485 1481 1478 1476 1473 1470 1467 1463 1460 1458 1454 1450 1446 1443 1439 1435 1430 1426 1423 1419 1416 1413 1410 1406 1402 1394 1388 1384 1384 1378 1372 1366 1362 1359 1354 1348 1343
1485 1481 1478 1475 1471 1468 1465 1461 1458 1454 1451 1448 1444 1441 1438 1434 1429 1426 1422 1418 1414 1410 1407 1406 1403 1399 1394 1387 1378 1373 1375 1368 1363 1356 1351 1347 1343 1338
1481 1478 1473 1469 1466 1463 1459 1456 1453 1449 1446 1442 1438 1435 1433 1429 1425 1421 1418 1415 1411 1407 1402 1399 1397 1394 1390 1384 1376 1368 1365 1364 1359 1352 1347 1341 1334 1328
1476 1473 1468 1464 1461 1457 1453 1450 1446 1443 1440 1437 1433 1429 1427 1424 1420 1417 1413 1409 1406 1402 1397 1394 1390 1387 1383 1378 1371 1364 1357 1354 1352 1348 1344 1340 1333 1324
1471 1466 1462 1459 1455 1452 1447 1443 1440 1437 1435 1432 1428 1424 1421 1418 1415 1412 1408 1405 1401 1397 1393 1387 1384 1380 1376 1372 1365 1358 1353 1347 1342 1336 1333 1332 1327 1322